Date_and_time,latitude,longitude,wind_speed,RelWindDirFrom,WindDirFrom,air_pressure,air_temperature,relative_humidity,Temp,platform_speed_wrt_ground,air_pressure_at_mean_sea_level,platform_orientation
2019-03-23 23:40,50.6304483333333,-96.980765,5.0,6.5,2,990.04,2.8,98,1.33,0.0,1017.63,0.0
2019-03-23 23:50,50.6304483333333,-96.9807666666667,7.3,10.0,351,990.13,4.4,81,1.34,0.0,1017.61,0.0
2019-03-24 00:00,50.63045,-96.9807666666667,9.7,12.6,351,990.28,5.1,75,1.35,0.0,1017.70,360.0
2019-03-24 00:10,50.6304766666667,-96.98079,10.4,14.8,346,990.48,5.4,72,1.36,0.0,1017.89,360.0
2019-03-24 00:20,50.6304616666667,-96.98077,11.7,16.1,345,990.64,5.8,69,1.36,0.0,1018.01,360.0
2019-03-24 00:30,50.63046,-96.9807766666667,15.4,21.6,345,990.74,5.6,67,1.36,0.0,1018.16,360.0
2019-03-24 00:40,50.6304533333333,-96.9807716666667,14.8,20.8,340,990.97,5.1,67,1.37,0.0,1018.38,360.0
2019-03-24 00:50,50.6304516666667,-96.9807716666667,17.4,24.8,345,991.12,4.6,69,1.38,0.0,1018.55,360.0
2019-03-24 01:00,50.63045,-96.98077,19.4,27.1,353,991.43,3.9,74,1.38,0.0,1018.92,270.0
2019-03-24 01:10,50.63045,-96.9807683333333,21.0,27.2,354,991.69,3.0,78,1.38,0.0,1019.31,270.0
2019-03-24 01:20,50.63045,-96.9807683333333,23.4,30.1,354,991.91,2.2,82,1.39,0.0,1019.64,270.0
2019-03-24 01:30,50.63045,-96.9807666666667,23.4,29.8,355,992.24,1.5,87,1.39,0.0,1020.01,270.0
2019-03-24 01:40,50.63045,-96.9807666666667,22.5,30.1,354,992.64,0.9,91,1.40,0.0,1020.37,270.0
2019-03-24 01:50,50.63045,-96.9807683333333,22.8,32.1,357,992.96,0.6,93,1.40,0.0,1020.68,270.0
2019-03-24 02:00,50.6304866666667,-96.9807966666667,21.4,25.9,359,993.45,0.2,96,1.40,0.0,1021.18,338.3
2019-03-24 02:10,50.6304533333333,-96.98076,19.7,25.6,359,993.93,-0.1,98,1.38,0.0,1021.67,338.3
2019-03-24 02:20,50.6304516666667,-96.9807566666667,20.1,26.0,1,994.12,-0.4,99,1.35,0.0,1021.89,338.3
2019-03-24 02:30,50.6304533333333,-96.98076,20.2,25.0,1,994.31,-0.4,99,1.34,0.0,1022.12,338.3
2019-03-24 02:40,50.6304466666667,-96.9807733333333,22.9,30.8,10,994.50,-0.5,98,1.32,0.0,1022.33,338.3
2019-03-24 02:50,50.6304533333333,-96.9807566666667,23.6,29.1,14,994.78,-0.7,96,1.33,0.0,1022.67,338.3
2019-03-24 03:00,50.6304583333333,-96.9807733333333,24.4,30.9,9,995.00,-0.9,92,1.34,0.0,1022.96,311.7
2019-03-24 03:10,50.6304533333333,-96.9807666666667,22.4,27.2,9,995.30,-1.1,93,1.34,0.0,1023.31,311.7
2019-03-24 03:20,50.63045,-96.9807666666667,21.2,27.5,9,995.58,-1.3,93,1.34,0.0,1023.65,311.7
2019-03-24 03:30,50.6304533333333,-96.9807683333333,20.6,25.4,8,995.80,-1.5,92,1.34,0.0,1023.92,311.7
2019-03-24 03:40,50.63042,-96.9807633333333,21.3,26.4,7,995.94,-1.9,88,1.34,0.0,1024.10,311.7
2019-03-24 03:50,50.63045,-96.980775,23.5,30.2,10,995.97,-2.2,84,1.34,0.0,1024.17,311.7
2019-03-24 04:00,50.6304483333333,-96.98077,24.7,28.7,11,996.03,-2.4,80,1.34,0.0,1024.25,360.0
2019-03-24 04:10,50.6304516666667,-96.9807683333333,24.1,28.4,11,996.30,-2.8,79,1.34,0.0,1024.57,360.0
2019-03-24 04:20,50.6304533333333,-96.9807683333333,21.9,27.5,11,996.64,-3.2,81,1.35,0.0,1024.94,360.0
2019-03-24 04:30,50.6304583333333,-96.9807783333333,20.0,23.6,10,996.96,-3.5,82,1.35,0.0,1025.29,360.0
2019-03-24 04:40,50.6304483333333,-96.9807716666667,20.1,23.2,11,997.10,-3.7,82,1.36,0.0,1025.46,360.0
2019-03-24 04:50,50.6304483333333,-96.9807683333333,19.9,24.0,11,997.33,-3.9,81,1.36,0.0,1025.71,360.0
2019-03-24 05:00,50.6304516666667,-96.9807683333333,19.9,24.4,11,997.59,-4.2,79,1.35,0.0,1026.01,143.0
2019-03-24 05:10,50.630455,-96.9807683333333,21.3,24.6,13,997.77,-4.4,76,1.35,0.0,1026.22,143.0
2019-03-24 05:20,50.630455,-96.98077,20.8,24.7,14,998.00,-4.7,75,1.35,0.0,1026.47,143.0
2019-03-24 05:30,50.630455,-96.98077,20.2,24.5,14,998.21,-4.9,75,1.35,0.0,1026.72,143.0
2019-03-24 05:40,50.630445,-96.9807716666667,19.6,23.5,14,998.40,-5.2,76,1.35,0.0,1026.95,143.0
2019-03-24 05:50,50.6304433333333,-96.980775,20.9,25.3,15,998.49,-5.4,74,1.32,0.0,1027.06,143.0
2019-03-24 06:00,50.63045,-96.98077,20.5,24.6,15,998.70,-5.5,71,1.30,0.0,1027.31,131.7
2019-03-24 06:10,50.6304516666667,-96.9807633333333,19.3,23.0,13,998.99,-5.8,73,1.29,0.0,1027.65,131.7
2019-03-24 06:20,50.6304516666667,-96.9807633333333,19.7,23.5,11,999.11,-6.1,72,1.28,0.0,1027.80,131.7
2019-03-24 06:30,50.6304533333333,-96.9807733333333,20.4,24.1,11,999.22,-6.3,71,1.29,0.0,1027.93,131.7
2019-03-24 06:40,50.6304516666667,-96.980775,21.1,24.6,12,999.44,-6.5,70,1.31,0.0,1028.18,131.7
2019-03-24 06:50,50.6304533333333,-96.98077,20.6,24.4,12,999.64,-6.8,71,1.31,0.0,1028.42,131.7
2019-03-24 07:00,50.6304566666667,-96.98077,20.2,24.5,11,999.80,-7.1,71,1.32,0.0,1028.61,38.0
2019-03-24 07:10,50.6304466666667,-96.9807816666667,19.8,23.6,10,1000.07,-7.4,70,1.31,0.0,1028.93,38.0
2019-03-24 07:20,50.630455,-96.980785,19.6,24.9,9,1000.23,-7.7,69,1.29,0.0,1029.12,38.0
2019-03-24 07:30,50.630455,-96.98078,20.7,25.0,12,1000.38,-7.9,66,1.28,0.0,1029.30,38.0
2019-03-24 07:40,50.6304566666667,-96.9807733333333,19.9,23.5,12,1000.67,-8.2,67,1.27,0.0,1029.62,38.0
2019-03-24 07:50,50.6304566666667,-96.980775,19.6,25.7,11,1000.90,-8.4,68,1.26,0.0,1029.88,38.0
2019-03-24 08:00,50.630455,-96.9807733333333,21.2,24.9,15,1001.00,-8.6,64,1.26,0.0,1030.01,270.0
2019-03-24 08:10,50.630455,-96.9807733333333,20.6,25.3,14,1001.17,-8.8,65,1.26,0.0,1030.21,270.0
2019-03-24 08:20,50.6304533333333,-96.9807733333333,19.9,23.5,14,1001.32,-9.1,66,1.27,0.0,1030.39,270.0
2019-03-24 08:30,50.63045,-96.98076,18.8,23.3,12,1001.51,-9.3,67,1.26,0.0,1030.61,270.0
2019-03-24 08:40,50.6304633333333,-96.9807666666667,19.4,23.9,12,1001.54,-9.6,68,1.25,0.0,1030.67,270.0
2019-03-24 08:50,50.6304616666667,-96.980765,19.6,22.8,12,1001.56,-9.8,68,1.24,0.0,1030.73,270.0
2019-03-24 09:00,50.6304583333333,-96.9807666666667,19.2,22.0,13,1001.63,-10.0,68,1.23,0.0,1030.82,38.0
2019-03-24 09:10,50.630455,-96.9807666666667,20.3,23.9,15,1001.69,-10.2,67,1.24,0.0,1030.91,38.0
2019-03-24 09:20,50.6304516666667,-96.9807666666667,19.2,23.1,16,1001.84,-10.3,67,1.24,0.0,1031.08,38.0
2019-03-24 09:30,50.6304516666667,-96.980765,18.5,21.5,13,1002.04,-10.6,69,1.26,0.0,1031.32,38.0
2019-03-24 09:40,50.63045,-96.980765,17.8,21.4,14,1002.24,-10.8,69,1.26,0.0,1031.56,38.0
2019-03-24 09:50,50.6304516666667,-96.9807666666667,19.0,23.2,15,1002.36,-10.9,67,1.27,0.0,1031.69,38.0
2019-03-24 10:00,50.6304516666667,-96.9807683333333,18.9,22.7,16,1002.42,-11.0,67,1.26,0.0,1031.78,90.0
2019-03-24 10:10,50.63045,-96.9807666666667,18.5,22.0,15,1002.54,-11.2,67,1.24,0.0,1031.92,90.0
2019-03-24 10:20,50.63045,-96.980765,18.4,21.4,15,1002.77,-11.4,67,1.23,0.0,1032.19,90.0
2019-03-24 10:30,50.63045,-96.980765,17.8,20.9,17,1003.03,-11.6,67,1.24,0.0,1032.47,90.0
2019-03-24 10:40,50.63045,-96.980765,16.2,19.0,12,1003.17,-11.8,69,1.24,0.0,1032.64,90.0
2019-03-24 10:50,50.6304483333333,-96.980765,16.4,19.3,11,1003.25,-12.0,69,1.24,0.0,1032.76,90.0
2019-03-24 11:00,50.6304483333333,-96.980765,16.5,19.6,11,1003.41,-12.3,69,1.24,0.0,1032.94,131.7
2019-03-24 11:10,50.6304466666667,-96.980765,16.7,19.3,11,1003.47,-12.4,68,1.23,0.0,1033.01,131.7
2019-03-24 11:20,50.6304466666667,-96.980765,15.7,19.7,12,1003.60,-12.6,67,1.22,0.0,1033.18,131.7
2019-03-24 11:30,50.6304433333333,-96.980755,15.4,17.9,12,1003.71,-12.7,67,1.21,0.0,1033.30,131.7
2019-03-24 11:40,50.63044,-96.9807666666667,15.5,18.1,10,1003.78,-12.9,67,1.21,0.0,1033.40,131.7
2019-03-24 11:50,50.6304383333333,-96.98077,15.4,18.0,10,1003.86,-13.0,66,1.20,0.0,1033.50,131.7
2019-03-24 12:00,50.6304366666667,-96.9807683333333,14.9,18.6,8,1004.04,-13.1,66,1.20,0.0,1033.70,360.0
2019-03-24 12:10,50.6304383333333,-96.9807666666667,15.6,18.4,8,1004.13,-13.2,65,1.19,0.0,1033.81,360.0
2019-03-24 12:20,50.6304383333333,-96.980765,15.7,18.8,7,1004.20,-13.3,65,1.18,0.0,1033.89,360.0
2019-03-24 12:30,50.6304383333333,-96.9807666666667,15.7,19.0,8,1004.29,-13.4,65,1.17,0.0,1034.01,360.0
2019-03-24 12:40,50.6304383333333,-96.9807683333333,16.0,18.8,7,1004.32,-13.5,65,1.17,0.0,1034.06,360.0
2019-03-24 12:50,50.6304366666667,-96.9807683333333,15.2,17.9,9,1004.43,-13.6,65,1.17,0.0,1034.19,360.0
2019-03-24 13:00,50.6304366666667,-96.9807666666667,15.3,17.8,9,1004.61,-13.6,65,1.17,0.0,1034.38,360.0
2019-03-24 13:10,50.6304366666667,-96.9807666666667,14.6,17.3,10,1004.76,-13.6,65,1.17,0.0,1034.54,360.0
2019-03-24 13:20,50.6304366666667,-96.9807666666667,15.0,17.4,9,1004.80,-13.7,65,1.16,0.0,1034.60,360.0
2019-03-24 13:30,50.6304383333333,-96.980765,14.2,17.2,11,1004.98,-13.7,66,1.16,0.0,1034.80,360.0
2019-03-24 13:40,50.630425,-96.9807566666667,14.2,17.1,10,1005.04,-13.7,65,1.16,0.0,1034.87,360.0
2019-03-24 13:50,50.6304266666667,-96.9807633333333,14.4,17.9,11,1005.02,-13.5,65,1.15,0.0,1034.84,360.0
2019-03-24 14:00,50.6304283333333,-96.9807616666667,14.6,18.0,11,1005.06,-13.3,64,1.15,0.0,1034.88,360.0
2019-03-24 14:10,50.6304283333333,-96.9807633333333,14.5,17.4,11,1005.16,-13.3,65,1.15,0.0,1034.98,360.0
2019-03-24 14:20,50.63043,-96.980765,15.2,18.0,11,1005.30,-13.2,64,1.15,0.0,1035.13,360.0
2019-03-24 14:30,50.63043,-96.980765,15.1,18.4,11,1005.39,-13.1,64,1.14,0.0,1035.21,360.0
2019-03-24 14:40,50.63043,-96.9807666666667,16.2,19.2,12,1005.36,-13.1,62,1.15,0.0,1035.19,360.0
2019-03-24 14:50,50.6304316666667,-96.9807666666667,16.5,19.3,13,1005.44,-13.0,62,1.15,0.0,1035.27,360.0
2019-03-24 15:00,50.6304316666667,-96.9807683333333,16.3,19.2,12,1005.50,-12.9,62,1.14,0.0,1035.33,142.0
2019-03-24 15:10,50.6304316666667,-96.9807683333333,16.4,19.1,12,1005.50,-12.8,61,1.14,0.0,1035.33,142.0
2019-03-24 15:20,50.6304316666667,-96.9807716666667,15.8,18.7,9,1005.60,-12.7,61,1.14,0.0,1035.43,142.0
2019-03-24 15:30,50.63044,-96.9807933333333,14.7,17.9,8,1005.73,-12.5,62,1.14,0.0,1035.54,142.0
2019-03-24 15:40,50.63043,-96.9807783333333,14.9,17.8,9,1005.77,-12.4,61,1.15,0.0,1035.56,142.0
2019-03-24 15:50,50.63043,-96.980775,15.4,17.9,6,1005.85,-12.2,60,1.15,0.0,1035.64,142.0
2019-03-24 16:00,50.6304333333333,-96.980775,15.0,19.1,8,1005.88,-12.0,60,1.15,0.0,1035.65,228.3
2019-03-24 16:10,50.6304366666667,-96.9807733333333,14.3,17.1,6,1005.92,-11.8,59,1.15,0.0,1035.67,228.3
2019-03-24 16:20,50.6304366666667,-96.980775,14.9,17.7,7,1005.91,-11.7,58,1.15,0.0,1035.65,228.3
2019-03-24 16:30,50.6304383333333,-96.9807766666667,14.3,17.5,6,1005.96,-11.5,58,1.14,0.0,1035.69,228.3
2019-03-24 16:40,50.6304383333333,-96.980775,15.0,18.0,7,1005.90,-11.4,57,1.14,0.0,1035.61,228.3
2019-03-24 16:50,50.6304383333333,-96.9807733333333,15.6,18.7,5,1005.92,-11.3,57,1.14,0.0,1035.63,228.3
2019-03-24 17:00,50.6304383333333,-96.9807716666667,15.0,18.3,8,1005.88,-10.9,58,1.15,0.0,1035.56,356.8
2019-03-24 17:10,50.63044,-96.9807716666667,15.5,18.4,9,1005.81,-10.8,56,1.15,0.0,1035.47,356.8
2019-03-24 17:20,50.6304316666667,-96.9807616666667,15.4,18.2,8,1005.72,-10.6,54,1.15,0.0,1035.35,356.8
2019-03-24 17:30,50.63043,-96.9807566666667,14.3,17.4,4,1005.70,-10.4,53,1.15,0.0,1035.32,356.8
2019-03-24 17:40,50.6304283333333,-96.9807616666667,13.8,17.2,7,1005.61,-10.0,53,1.15,0.0,1035.20,356.8
2019-03-24 17:50,50.6304383333333,-96.98076,13.3,16.6,5,1005.60,-9.7,52,1.15,0.0,1035.15,356.8
2019-03-24 18:00,50.6304383333333,-96.9807583333333,13.5,16.7,4,1005.50,-9.5,53,1.16,0.0,1035.03,14.5
2019-03-24 18:10,50.6304383333333,-96.98076,12.9,15.5,4,1005.47,-9.3,52,1.16,0.0,1034.98,14.5
2019-03-24 18:20,50.6304383333333,-96.9807633333333,12.2,15.0,6,1005.50,-9.0,50,1.16,0.0,1034.98,14.5
2019-03-24 18:30,50.63044,-96.9807633333333,11.8,14.4,8,1005.41,-8.7,48,1.16,0.0,1034.87,14.5
2019-03-24 18:40,50.63044,-96.9807633333333,11.5,14.2,4,1005.34,-8.3,48,1.17,0.0,1034.76,14.5
2019-03-24 18:50,50.63044,-96.980765,13.1,15.5,10,1005.16,-8.2,47,1.17,0.0,1034.56,14.5
2019-03-24 19:00,50.6304466666667,-96.9808016666667,12.1,15.1,4,1005.10,-8.0,52,1.17,0.0,1034.48,305.8
2019-03-24 19:10,50.6304283333333,-96.9807783333333,10.8,13.7,1,1005.18,-7.7,50,1.18,0.0,1034.53,305.8
2019-03-24 19:20,50.6304466666667,-96.9807783333333,11.2,13.7,1,1005.20,-7.5,49,1.19,0.0,1034.52,305.8
2019-03-24 19:30,50.63044,-96.9807716666667,11.3,13.6,359,1005.19,-7.2,48,1.19,0.0,1034.48,305.8
2019-03-24 19:40,50.6304433333333,-96.9807733333333,11.7,14.1,360,1005.14,-6.9,45,1.20,0.0,1034.40,305.8
2019-03-24 19:50,50.6304383333333,-96.98077,11.9,14.7,1,1005.10,-6.8,44,1.21,0.0,1034.34,305.8
2019-03-24 20:00,50.63044,-96.9807666666667,11.8,14.5,2,1005.07,-6.3,42,1.21,0.0,1034.27,90.0
2019-03-24 20:10,50.6304416666667,-96.9807566666667,11.1,13.7,2,1005.09,-5.8,42,1.22,0.0,1034.24,90.0
2019-03-24 20:20,50.6304433333333,-96.9808066666667,10.8,14.2,356,1005.03,-5.5,40,1.23,0.0,1034.14,90.0
2019-03-24 20:30,50.63043,-96.98073,10.9,14.1,359,1004.99,-5.2,36,1.23,0.0,1034.06,90.0
2019-03-24 20:40,50.6304416666667,-96.9807616666667,9.9,13.7,360,1004.94,-4.9,37,1.24,0.0,1033.98,90.0
2019-03-24 20:50,50.6304416666667,-96.980765,10.5,13.3,359,1004.89,-4.6,32,1.25,0.0,1033.91,90.0
2019-03-24 21:00,50.6304433333333,-96.98077,10.3,12.9,358,1004.83,-4.4,33,1.26,0.0,1033.82,270.0
2019-03-24 21:10,50.6304433333333,-96.98077,10.2,12.3,356,1004.80,-4.2,33,1.27,0.0,1033.77,270.0
2019-03-24 21:20,50.6304433333333,-96.98077,8.8,11.3,359,1004.87,-3.9,35,1.28,0.0,1033.81,270.0
2019-03-24 21:30,50.630445,-96.9807683333333,8.8,10.9,1,1004.86,-3.7,36,1.29,0.0,1033.78,270.0
2019-03-24 21:40,50.630445,-96.9807683333333,9.7,12.0,1,1004.82,-3.7,34,1.30,0.0,1033.72,270.0
2019-03-24 21:50,50.630445,-96.9807666666667,9.5,12.1,1,1004.79,-3.6,37,1.31,0.0,1033.66,270.0
2019-03-24 22:00,50.6304466666667,-96.9807483333333,9.7,11.8,1,1004.71,-3.6,38,1.32,0.0,1033.56,90.0
2019-03-24 22:10,50.6304483333333,-96.980765,9.2,11.3,2,1004.73,-3.5,42,1.32,0.0,1033.54,90.0
2019-03-24 22:20,50.6304483333333,-96.9807633333333,9.5,11.7,2,1004.64,-3.4,40,1.33,0.0,1033.44,90.0
2019-03-24 22:30,50.6304466666667,-96.9807633333333,9.4,12.2,4,1004.56,-3.5,43,1.34,0.0,1033.34,90.0
2019-03-24 22:40,50.6304433333333,-96.980765,9.8,12.2,2,1004.55,-3.4,44,1.35,0.0,1033.32,90.0
2019-03-24 22:50,50.630445,-96.980765,10.7,13.3,2,1004.43,-3.5,41,1.36,0.0,1033.18,90.0
2019-03-24 23:00,50.6304466666667,-96.980765,9.6,11.4,359,1004.48,-3.4,37,1.36,0.0,1033.22,38.0
2019-03-24 23:10,50.630445,-96.9807633333333,8.9,11.2,357,1004.51,-3.3,37,1.37,0.0,1033.22,38.0
2019-03-24 23:20,50.6304466666667,-96.9807633333333,8.4,10.4,356,1004.54,-3.1,36,1.38,0.0,1033.24,38.0
2019-03-24 23:30,50.6304466666667,-96.9807633333333,7.4,9.3,355,1004.59,-3.1,41,1.38,0.0,1033.28,38.0
2019-03-24 23:40,50.6304466666667,-96.9807633333333,8.2,9.9,1,1004.55,-3.2,45,1.38,0.0,1033.25,38.0
